CAS500-2

Last updated on Mon Sep 21 2026 00:02:47 GMT+0000 (Coordinated Universal Time)

1 69013U 26100AK 26263.25219117 .00003880 00000+0 18153-3 0 9994 2 69013 97.3749 159.1548 0010858 50.6328 309.5868 15.20290945 21255
UTC large
Height (km)
Speed (km/s)
/
Latitude / Longitude
Inclination (degrees)
Orbital Period (minutes)
Azimuth
Elevation
Range (km)
Doppler Factor

Next 0 passes for location: London (51.5072 / 0.1276)

No passes found over London.
CAS500-2